STARLINK-2564 (48284 NORAD) Tracking and Keplerian Element Data

This shows tracking and keplerian element data for the satellite.

Feedback or suggestion? Click here.




ElementValue
Catalog48284
NameSTARLINK-2564
Epoch Orbit197
Epoch Day173.83334491
Epoch Year2021
RAAN257.2709
Inclination53.0518
Eccentricity0.0001531
Argument of Perigee43.8518
Mean Anonmoly329.5323
Mean Motion15.72746753
Decay Rate0.00770044
L11 48284U 21036J 21173.83334491 .00770044 00000-0 51006-2 0 9993
L22 48284 53.0518 257.2709 0001531 43.8518 329.5323 15.72746753 1972

Live tracking and technical data element details for STARLINK-2564 (NORAD 48284). STARLINK-2564 can be tracked NOW for your location showing map with azimuth and elevation plus other details from your city location.

Track the satellite on the map from your city or location and see movement details for azimuth, elevation, latitude, longitude, range, height, and movement on the map or in text.







IsCatalogInMostPopularTable: catalog: 48284, numindb: 22
Update: records affected: 1



GetName: 48284 STARLINK-2564

Hit Count: updated at: Thu, 24 Jun 2021 02:47:26 GMT